Baker, MT

6:49 AM MST on December 16, 2017 (GMT -0700)
Baker Municipal

Weather History for KBHK - February, 2014

Change the Weather History Date:

Tuesday, February 18, 2014

  Actual Average Record
Temperature  
Mean Temperature 34 °F -  
Max Temperature 42 °F 2 °F 68 °F (2016)
Min Temperature 27 °F -22 °F -13 °F (2006)
Degree Days  
Heating Degree Days 30    
Moisture  
Dew Point 26 °F    
Average Humidity 71    
Maximum Humidity 93    
Minimum Humidity 41    
Precipitation  
Precipitation 0.00 in - - ()
Sea Level Pressure  
Sea Level Pressure 29.75 in    
Wind  
Wind Speed 17 mph (West)    
Max Wind Speed 31 mph    
Max Gust Speed 40 mph    
Visibility 8 miles    
Events Fog , Snow    
Averages and records for this station are not official NWS values.
T = Trace of Precipitation, MM = Missing Value Source: NWS Daily Summary

Daily Weather History Graph

Daily Weather History Graph

Search for Another Location

Airport or City:

Trip Planner

Search our weather history database for the weather conditions in past years. The results will help you decide how hot, cold, wet, or windy it might be!

Date:

Astronomy

Feb. 18, 2014 Rise Set
Actual Time 6:55 AM MST 5:27 PM MST
Civil Twilight 6:24 AM MST 5:58 PM MST
Nautical Twilight 5:49 AM MST 6:33 PM MST
Astronomical Twilight 5:14 AM MST 7:07 PM MST
Moon 9:39 PM MST (2/18) 8:14 AM MST (2/18)
Length of Visible Light 11h 33m
Length of Day
10h 31m
Waning Gibbous, 87% of the Moon is Illuminated
Feb 18
Waning Gibbous
Feb 22
Last Quarter
Mar 1
New
Mar 8
First Quarter
Mar 16
Full

Hourly Weather History & Observations

Time (MST) Temp. Windchill Dew Point Humidity Pressure Visibility Wind Dir Wind Speed Gust Speed Precip Events Conditions
12:51 AM 34.0 °F 25.5 °F 24.1 °F 67% 29.59 in 10.0 mi SW 11.5 mph - N/A   Mostly Cloudy
1:51 AM 42.1 °F 32.6 °F 26.1 °F 53% 29.55 in 10.0 mi West 23.0 mph 31.1 mph 0.00 in   Mostly Cloudy
1:56 AM 41.0 °F 31.6 °F 26.1 °F 55% 29.54 in 10.0 mi West 20.7 mph 31.1 mph N/A   Mostly Cloudy
2:51 AM 37.0 °F 30.4 °F 27.0 °F 67% 29.58 in 10.0 mi WNW 9.2 mph - N/A   Partly Cloudy
3:51 AM 35.1 °F 27.9 °F 28.0 °F 76% 29.59 in 10.0 mi WSW 9.2 mph - N/A   Overcast
4:51 AM 35.1 °F 26.9 °F 28.0 °F 76% 29.62 in 10.0 mi WSW 11.5 mph - N/A   Overcast
5:51 AM 36.0 °F 27.1 °F 28.0 °F 73% 29.65 in 10.0 mi West 13.8 mph - N/A   Mostly Cloudy
6:51 AM 35.1 °F 26.9 °F 28.0 °F 76% 29.68 in 10.0 mi West 11.5 mph - N/A   Mostly Cloudy
7:51 AM 36.0 °F 25.3 °F 27.0 °F 70% 29.72 in 9.0 mi West 19.6 mph 31.1 mph 0.00 in   Overcast
8:31 AM 34.0 °F 20.5 °F 28.9 °F 82% 29.71 in 2.0 mi WNW 28.8 mph 38.0 mph 0.00 in Snow Light Snow
8:37 AM 33.1 °F 18.9 °F 30.0 °F 89% 29.72 in 1.0 mi WNW 31.1 mph 39.1 mph 0.00 in Snow Light Snow
8:42 AM 33.1 °F 20.3 °F 30.0 °F 89% 29.72 in 0.5 mi WNW 24.2 mph 39.1 mph 0.00 in Fog , Snow Snow
8:51 AM 33.1 °F 20.3 °F 30.0 °F 89% 29.78 in 1.0 mi WNW 24.2 mph 31.1 mph 0.00 in Snow Light Snow
8:56 AM 33.1 °F 21.2 °F 30.0 °F 89% 29.73 in 3.0 mi WNW 20.7 mph 31.1 mph 0.00 in Snow Light Snow
9:01 AM 33.1 °F 21.9 °F 30.0 °F 89% 29.73 in 4.0 mi WNW 18.4 mph 29.9 mph 0.00 in Snow Light Snow
9:21 AM 34.0 °F 23.8 °F 30.9 °F 89% 29.74 in 9.0 mi WNW 16.1 mph - 0.00 in   Mostly Cloudy
9:28 AM 34.0 °F 23.8 °F 32.0 °F 92% 29.75 in 10.0 mi WNW 16.1 mph 24.2 mph 0.00 in   Scattered Clouds
9:51 AM 36.0 °F 26.0 °F 34.0 °F 93% 29.81 in 10.0 mi WNW 17.3 mph 24.2 mph 0.00 in   Clear
10:51 AM 39.0 °F 28.3 °F - N/A% 29.82 in 10.0 mi WNW 24.2 mph 32.2 mph N/A   Clear
11:51 AM 39.9 °F 28.6 °F 33.1 °F 77% 29.84 in 10.0 mi NW 28.8 mph 39.1 mph N/A   Clear
12:51 PM 39.9 °F 28.2 °F 24.1 °F 53% 29.83 in 10.0 mi WNW 31.1 mph 38.0 mph N/A   Partly Cloudy
1:51 PM 41.0 °F 30.5 °F 21.0 °F 45% 29.83 in 10.0 mi WNW 26.5 mph 39.1 mph N/A   Clear
2:51 PM 41.0 °F 30.5 °F 19.9 °F 43% 29.85 in 10.0 mi WNW 26.5 mph 40.3 mph N/A   Clear
3:51 PM 39.9 °F 29.2 °F 18.0 °F 41% 29.87 in 10.0 mi WNW 25.3 mph 34.5 mph N/A   Clear
4:51 PM 37.9 °F 29.6 °F 21.0 °F 51% 29.88 in 10.0 mi WNW 13.8 mph - N/A   Clear
5:51 PM 32.0 °F 25.6 °F 21.9 °F 66% 29.90 in 10.0 mi West 6.9 mph - N/A   Clear
6:51 PM 30.0 °F 23.2 °F 19.9 °F 66% 29.90 in 10.0 mi West 6.9 mph - N/A   Clear
7:51 PM 30.9 °F 22.2 °F 21.0 °F 67% 29.88 in 10.0 mi WSW 10.4 mph - N/A   Clear
8:51 PM 30.0 °F 21.1 °F 19.9 °F 66% 29.85 in 10.0 mi WSW 10.4 mph - N/A   Clear
9:51 PM 30.0 °F 20.5 °F 19.0 °F 64% 29.83 in 10.0 mi SSW 11.5 mph - N/A   Clear
10:51 PM 27.0 °F 18.0 °F 19.0 °F 72% 29.79 in 10.0 mi South 9.2 mph - N/A   Clear
11:51 PM 30.0 °F 20.5 °F 19.0 °F 64% 29.74 in 10.0 mi South 11.5 mph - N/A   Clear